Weather History for North Myrtle Beach, SC

Change the Weather History Date:

Monday, December 17, 2012

  Actual Average Record
Temperature  
Mean Temperature 63 °F 48 °F  
Max Temperature 67 °F 58 °F 71 °F (2001)
Min Temperature 59 °F 39 °F 17 °F (1951)
Degree Days  
Heating Degree Days 2 17  
Month to date heating degree days 131 255  
Since 1 July heating degree days 629 616  
Cooling Degree Days 0 0  
Month to date cooling degree days 0 0  
Year to date cooling degree days 2096 1899  
Growing Degree Days 13 (Base 50)    
Moisture  
Dew Point 61 °F    
Average Humidity 95    
Maximum Humidity 100    
Minimum Humidity 90    
Precipitation  
Precipitation 0.31 in 0.12 in 0.40 in (2005)
Month to date precipitation 1.04 2.03  
Year to date precipitation 36.60 50.58  
Sea Level Pressure  
Sea Level Pressure 29.84 in    
Wind  
Wind Speed 6 mph (SW)    
Max Wind Speed 16 mph    
Max Gust Speed 24 mph    
Visibility 8 miles    
Events Rain    
T = Trace of Precipitation, MM = Missing Value Source: NWS Daily Summary

Daily Weather History Graph

Daily Weather History Graph

Search for Another Location

Airport:

Trip Planner

Search our weather history database for the weather conditions in past years. The results will help you decide how hot, cold, wet, or windy it might be!

Date:

Astronomy

Dec. 17, 2012 Rise Set
Actual Time 7:13 AM EST 5:08 PM EST
Civil Twilight 6:46 AM EST 5:36 PM EST
Nautical Twilight 6:15 AM EST 6:07 PM EST
Astronomical Twilight 5:44 AM EST 6:38 PM EST
Moon 10:32 AM EST (12/17) 10:15 PM EST (12/17)
Length of Visible Light 10h 50m
Length of Day
9h 54m
Waxing Crescent, 24% of the Moon is Illuminated
Dec 17
Waxing Crescent
Dec 20
First Quarter
Dec 28
Full
Jan 4
Last Quarter
Jan 11
New

Hourly Weather History & Observations

Time (EST) Temp. Dew Point Humidity Pressure Visibility Wind Dir Wind Speed Gust Speed Precip Events Conditions
12:09 AM 62.6 °F 60.8 °F 94% 29.90 in 10.0 mi SSW 8.1 mph - N/A   Overcast
12:29 AM 60.8 °F 60.8 °F 100% 29.90 in 10.0 mi SSW 8.1 mph - N/A   Overcast
12:53 AM 62.1 °F 61.0 °F 96% 29.89 in 5.0 mi SSW 9.2 mph - N/A   Overcast
1:13 AM 62.6 °F 62.6 °F 100% 29.88 in 2.5 mi South 9.2 mph - N/A   Overcast
1:25 AM 62.6 °F 60.8 °F 94% 29.89 in 1.5 mi SSW 9.2 mph - N/A   Overcast
1:53 AM 62.1 °F 61.0 °F 96% 29.88 in 1.8 mi SSW 9.2 mph - N/A   Overcast
1:58 AM 62.6 °F 62.6 °F 100% 29.88 in 3.0 mi SSW 9.2 mph - N/A   Overcast
2:24 AM 62.6 °F 62.6 °F 100% 29.88 in 7.0 mi SW 8.1 mph - N/A   Overcast
2:53 AM 62.1 °F 62.1 °F 100% 29.87 in 10.0 mi SSW 4.6 mph - N/A   Overcast
3:53 AM 62.1 °F 61.0 °F 96% 29.86 in 10.0 mi SW 3.5 mph - 0.00 in Rain Light Rain
4:53 AM 64.9 °F 62.1 °F 90% 29.86 in 10.0 mi WSW 8.1 mph - 0.01 in   Overcast
5:53 AM 64.9 °F 62.1 °F 90% 29.84 in 10.0 mi Variable 6.9 mph - N/A   Overcast
6:51 AM 62.6 °F 60.8 °F 94% 29.81 in 10.0 mi South 8.1 mph - 0.00 in   Mostly Cloudy
6:53 AM 62.1 °F 60.1 °F 93% 29.82 in 10.0 mi SSW 6.9 mph - 0.00 in   Mostly Cloudy
7:53 AM 61.0 °F 59.0 °F 93% 29.84 in 10.0 mi SW 8.1 mph - 0.00 in   Clear
8:53 AM 61.0 °F 59.0 °F 93% 29.85 in 10.0 mi WSW 4.6 mph - N/A   Mostly Cloudy
9:01 AM 62.6 °F 60.8 °F 94% 29.85 in 10.0 mi Calm Calm - N/A   Overcast
9:08 AM 62.6 °F 60.8 °F 94% 29.84 in 10.0 mi Calm Calm - N/A   Overcast
9:53 AM 64.9 °F 62.1 °F 90% 29.87 in 10.0 mi West 5.8 mph - N/A   Mostly Cloudy
10:26 AM 66.2 °F 62.6 °F 88% 29.87 in - West 5.8 mph - N/A   Scattered Clouds
10:53 AM - - N/A% 29.87 in - West 6.9 mph - N/A   Unknown
11:25 AM 66.2 °F - N/A% 29.85 in - West 6.9 mph - N/A   Overcast
11:53 AM 66.0 °F - N/A% 29.84 in - WNW 5.8 mph - N/A   Overcast
12:29 PM 66.2 °F - N/A% 29.84 in - North - - N/A   Unknown
12:53 PM - - N/A% 29.84 in - North - - N/A   Unknown
1:53 PM 64.0 °F 60.1 °F 87% 29.81 in 10.0 mi Calm Calm - N/A Rain Light Rain
2:53 PM 63.0 °F 61.0 °F 93% 29.82 in 8.0 mi Calm Calm - 0.01 in Rain Light Rain
3:18 PM 62.6 °F 62.6 °F 100% 29.81 in 10.0 mi Calm Calm - 0.00 in   Overcast
3:25 PM 62.6 °F 60.8 °F 94% 29.81 in 10.0 mi Calm Calm - 0.00 in   Overcast
3:53 PM 63.0 °F 61.0 °F 93% 29.79 in 9.0 mi NNE 3.5 mph - 0.00 in Rain Light Rain
4:53 PM 62.1 °F 61.0 °F 96% 29.81 in 5.0 mi Calm Calm - 0.00 in Rain Light Rain
7:53 PM 60.1 °F 59.0 °F 96% 29.82 in 8.0 mi SE 5.8 mph - 0.02 in Rain Light Rain
8:53 PM 60.1 °F 57.9 °F 93% 29.76 in 10.0 mi SSE 10.4 mph - 0.02 in Rain Light Rain
9:53 PM 60.1 °F 57.0 °F 90% 29.71 in 10.0 mi SSE 11.5 mph - 0.00 in   Mostly Cloudy
10:53 PM 60.1 °F 57.0 °F 90% 29.75 in 10.0 mi West 6.9 mph - N/A   Clear
11:53 PM 59.0 °F 57.0 °F 93% 29.75 in 10.0 mi WSW 4.6 mph - N/A   Mostly Cloudy